| time (UTC) | temp F | wind direction | speed MPH | gust MPH | rain 1hr in | rain 24hr in | rain mn in | humidity % | barometer mb |
| 20260901134530 | 65 | 12 | 0.0 | 2.0 | 0.00 | 0.00 | 0.00 | 71 | 1015.5 |
| 20260901133013 | 62 | 12 | 1.0 | 3.0 | 0.00 | 0.00 | 0.00 | 80 | 1015.1 |
| 20260901131508 | 57 | 12 | 0.0 | 0.0 | 0.00 | 0.00 | 0.00 | 91 | 1015.3 |
| 20260901130004 | 55 | 12 | 0.0 | 0.0 | 0.00 | 0.00 | 0.00 | 91 | 1015.2 |
| 20260901124507 | 54 | 12 | 0.0 | 0.0 | 0.00 | 0.00 | 0.00 | 91 | 1015.4 |
| 20260901123017 | 54 | 12 | 0.0 | 0.0 | 0.00 | 0.00 | 0.00 | 90 | 1015.3 |
| 20260901121523 | 53 | 12 | 0.0 | 0.0 | 0.00 | 0.00 | 0.00 | 89 | 1015.3 |
| 20260901120012 | 54 | 12 | 0.0 | 0.0 | 0.00 | 0.00 | 0.00 | 89 | 1015.2 |
| 20260901114509 | 54 | 12 | 0.0 | 0.0 | 0.00 | 0.00 | 0.00 | 89 | 1015.1 |
| 20260901113018 | 55 | 12 | 0.0 | 0.0 | 0.00 | 0.00 | 0.00 | 88 | 1015.2 |
| 20260901111526 | 55 | 12 | 0.0 | 0.0 | 0.00 | 0.00 | 0.00 | 87 | 1014.9 |
| 20260901110009 | 55 | 12 | 0.0 | 0.0 | 0.00 | 0.00 | 0.00 | 86 | 1014.7 |
| 20260901104514 | 56 | 12 | 0.0 | 0.0 | 0.00 | 0.00 | 0.00 | 85 | 1014.9 |
| 20260901103018 | 55 | 12 | 1.0 | 3.0 | 0.00 | 0.00 | 0.00 | 87 | 1014.6 |
| 20260901101549 | 56 | 273 | 0.0 | 0.0 | 0.00 | 0.00 | 0.00 | 85 | 1014.0 |
| 20260901100006 | 56 | 273 | 0.0 | 0.0 | 0.00 | 0.00 | 0.00 | 83 | 1014.0 |
| 20260901094527 | 57 | 273 | 0.0 | 0.0 | 0.00 | 0.00 | 0.00 | 82 | 1013.9 |
| 20260901093023 | 58 | 273 | 0.0 | 0.0 | 0.00 | 0.00 | 0.00 | 81 | 1013.9 |
| 20260901091544 | 59 | 273 | 0.0 | 0.0 | 0.00 | 0.00 | 0.00 | 78 | 1013.8 |
| 20260901090008 | 61 | 273 | 0.0 | 0.0 | 0.00 | 0.00 | 0.00 | 74 | 1013.5 |
| 20260901084532 | 62 | 273 | 0.0 | 0.0 | 0.00 | 0.00 | 0.00 | 71 | 1013.4 |
| 20260901083025 | 62 | 273 | 0.0 | 1.0 | 0.00 | 0.00 | 0.00 | 71 | 1013.3 |
| 20260901081527 | 62 | 273 | 0.0 | 3.0 | 0.00 | 0.00 | 0.00 | 72 | 1013.3 |
| 20260901080025 | 61 | 261 | 0.0 | 3.0 | 0.00 | 0.00 | 0.00 | 76 | 1013.6 |
| 20260901074518 | 61 | 225 | 0.0 | 0.0 | 0.00 | 0.00 | 0.00 | 79 | 1013.9 |
| 20260901073030 | 61 | 225 | 0.0 | 0.0 | 0.00 | 0.00 | 0.00 | 83 | 1013.9 |
| 20260901071529 | 61 | 225 | 0.0 | 0.0 | 0.00 | 0.00 | 0.00 | 84 | 1014.0 |
| 20260901070002 | 62 | 225 | 0.0 | 0.0 | 0.00 | 0.00 | 0.00 | 84 | 1014.0 |
| 20260901064502 | 62 | 225 | 0.0 | 0.0 | 0.00 | 0.00 | 0.00 | 83 | 1014.2 |
| 20260901063004 | 63 | 225 | 0.0 | 0.0 | 0.00 | 0.00 | 0.00 | 82 | 1014.1 |
| 20260901061508 | 64 | 225 | 0.0 | 0.0 | 0.00 | 0.08 | 0.00 | 82 | 1014.2 |
| 20260901060016 | 64 | 225 | 0.0 | 1.0 | 0.00 | 0.08 | 0.00 | 82 | 1014.1 |
| 20260901054503 | 64 | 225 | 0.0 | 2.0 | 0.00 | 0.08 | 0.00 | 82 | 1014.2 |
| 20260901053003 | 65 | 225 | 0.0 | 2.0 | 0.00 | 0.08 | 0.00 | 81 | 1014.3 |
| 20260901051509 | 66 | 225 | 0.0 | 0.0 | 0.00 | 0.08 | 0.00 | 79 | 1014.1 |
| 20260901050003 | 66 | 225 | 0.0 | 0.0 | 0.00 | 0.08 | 0.00 | 79 | 1014.1 |
| 20260901044506 | 67 | 225 | 0.0 | 0.0 | 0.00 | 0.08 | 0.08 | 80 | 1013.8 |
| 20260901043020 | 67 | 225 | 0.0 | 0.0 | 0.00 | 0.08 | 0.08 | 79 | 1013.8 |
| 20260901041516 | 68 | 225 | 0.0 | 0.0 | 0.00 | 0.08 | 0.08 | 79 | 1013.9 |
| 20260901040019 | 68 | 225 | 0.0 | 0.0 | 0.00 | 0.08 | 0.08 | 78 | 1013.7 |
| 20260901034504 | 68 | 225 | 0.0 | 0.0 | 0.00 | 0.08 | 0.08 | 78 | 1013.7 |
| 20260901033008 | 68 | 225 | 0.0 | 0.0 | 0.00 | 0.08 | 0.08 | 78 | 1013.5 |
| 20260901031517 | 69 | 225 | 0.0 | 0.0 | 0.00 | 0.08 | 0.08 | 78 | 1013.4 |
| 20260901030023 | 69 | 225 | 0.0 | 0.0 | 0.00 | 0.08 | 0.08 | 76 | 1013.1 |
| 20260901024504 | 69 | 225 | 0.0 | 0.0 | 0.00 | 0.08 | 0.08 | 75 | 1013.0 |
| 20260901023010 | 70 | 225 | 0.0 | 0.0 | 0.00 | 0.08 | 0.08 | 74 | 1012.8 |
| 20260901021516 | 70 | 225 | 0.0 | 0.0 | 0.00 | 0.08 | 0.08 | 74 | 1012.7 |
| 20260901020020 | 71 | 225 | 0.0 | 1.0 | 0.00 | 0.08 | 0.08 | 72 | 1012.5 |
| 20260901014505 | 72 | 225 | 0.0 | 2.0 | 0.00 | 0.08 | 0.08 | 70 | 1012.3 |
| 20260901013010 | 73 | 225 | 0.0 | 2.0 | 0.00 | 0.08 | 0.08 | 68 | 1012.0 |
| 20260901011524 | 75 | 225 | 0.0 | 5.0 | 0.00 | 0.08 | 0.08 | 66 | 1012.0 |
| 20260901010026 | 76 | 242 | 0.0 | 2.0 | 0.00 | 0.08 | 0.08 | 62 | 1011.9 |
| 20260901004504 | 78 | 242 | 0.0 | 0.0 | 0.00 | 0.08 | 0.08 | 58 | 1012.0 |
| 20260901003010 | 79 | 242 | 0.0 | 3.0 | 0.00 | 0.08 | 0.08 | 56 | 1012.1 |
| 20260901001520 | 80 | 244 | 1.0 | 4.0 | 0.00 | 0.08 | 0.08 | 52 | 1012.0 |
| 20260901000027 | 81 | 229 | 0.0 | 2.0 | 0.00 | 0.08 | 0.08 | 51 | 1012.0 |
| 20260831234509 | 82 | 146 | 0.0 | 3.0 | 0.00 | 0.08 | 0.08 | 50 | 1012.0 |
| 20260831233013 | 82 | 143 | 0.0 | 3.0 | 0.00 | 0.08 | 0.08 | 49 | 1012.0 |
| 20260831231530 | 83 | 155 | 0.0 | 5.0 | 0.00 | 0.08 | 0.08 | 46 | 1012.0 |
| 20260831230031 | 84 | 202 | 0.0 | 5.0 | 0.00 | 0.08 | 0.08 | 45 | 1012.1 |
| 20260831224547 | 84 | 157 | 0.0 | 7.0 | 0.00 | 0.08 | 0.08 | 47 | 1012.1 |
| 20260831223016 | 85 | 248 | 1.0 | 7.0 | 0.00 | 0.08 | 0.08 | 47 | 1012.1 |
| 20260831221523 | 85 | 237 | 2.0 | 10.0 | 0.00 | 0.08 | 0.08 | 41 | 1012.0 |
| 20260831220027 | 85 | 280 | 4.0 | 9.0 | 0.00 | 0.08 | 0.08 | 37 | 1012.0 |
| 20260831214536 | 85 | 262 | 5.0 | 11.0 | 0.00 | 0.08 | 0.08 | 38 | 1012.1 |
| 20260831213010 | 85 | 254 | 5.0 | 12.0 | 0.00 | 0.08 | 0.08 | 35 | 1012.2 |
| 20260831211504 | 84 | 254 | 4.0 | 9.0 | 0.00 | 0.08 | 0.08 | 37 | 1012.2 |
| 20260831210009 | 84 | 250 | 5.0 | 10.0 | 0.00 | 0.08 | 0.08 | 39 | 1012.4 |
| 20260831204515 | 84 | 263 | 3.0 | 9.0 | 0.00 | 0.08 | 0.08 | 38 | 1012.5 |
| 20260831203026 | 83 | 269 | 5.0 | 10.0 | 0.00 | 0.08 | 0.08 | 40 | 1012.7 |
| 20260831201503 | 83 | 284 | 4.0 | 10.0 | 0.00 | 0.08 | 0.08 | 41 | 1012.8 |
| 20260831200006 | 83 | 245 | 6.0 | 9.0 | 0.00 | 0.08 | 0.08 | 40 | 1012.9 |
| 20260831194513 | 82 | 329 | 1.0 | 11.0 | 0.00 | 0.08 | 0.08 | 42 | 1013.1 |
| 20260831193018 | 82 | 238 | 2.0 | 8.0 | 0.00 | 0.08 | 0.08 | 45 | 1013.1 |
| 20260831191515 | 81 | 274 | 3.0 | 9.0 | 0.00 | 0.08 | 0.08 | 40 | 1013.2 |
| 20260831190008 | 81 | 255 | 4.0 | 8.0 | 0.00 | 0.08 | 0.08 | 46 | 1013.4 |
| 20260831184512 | 81 | 288 | 1.0 | 9.0 | 0.00 | 0.08 | 0.08 | 46 | 1013.4 |
| 20260831183028 | 79 | 245 | 3.0 | 9.0 | 0.00 | 0.08 | 0.08 | 50 | 1013.6 |
| 20260831181521 | 80 | 252 | 1.0 | 8.0 | 0.00 | 0.08 | 0.08 | 48 | 1013.6 |
| 20260831180009 | 78 | 299 | 0.0 | 10.0 | 0.00 | 0.08 | 0.08 | 51 | 1013.7 |
| 20260831174515 | 77 | 217 | 5.0 | 11.0 | 0.00 | 0.08 | 0.08 | 49 | 1013.8 |
| 20260831173035 | 77 | 265 | 4.0 | 11.0 | 0.00 | 0.08 | 0.08 | 46 | 1013.9 |
| 20260831171527 | 76 | 307 | 1.0 | 8.0 | 0.00 | 0.08 | 0.08 | 49 | 1014.1 |
| 20260831170010 | 76 | 355 | 1.0 | 8.0 | 0.00 | 0.08 | 0.08 | 53 | 1013.8 |
| 20260831164516 | 75 | 284 | 0.0 | 8.0 | 0.00 | 0.08 | 0.08 | 54 | 1014.0 |
| 20260831163032 | 74 | 340 | 0.0 | 9.0 | 0.00 | 0.08 | 0.08 | 56 | 1013.9 |
| 20260831161532 | 72 | 272 | 1.0 | 8.0 | 0.00 | 0.08 | 0.08 | 60 | 1013.9 |
| 20260831160024 | 71 | 273 | 2.0 | 9.0 | 0.00 | 0.08 | 0.08 | 61 | 1013.8 |
| 20260831154608 | 70 | 283 | 2.0 | 7.0 | 0.00 | 0.08 | 0.08 | 67 | 1013.8 |
| 20260831153028 | 68 | 252 | 3.0 | 8.0 | 0.00 | 0.08 | 0.08 | 69 | 1013.5 |
| 20260831151536 | 68 | 261 | 1.0 | 7.0 | 0.00 | 0.08 | 0.08 | 71 | 1013.6 |
| 20260831150015 | 66 | 281 | 1.0 | 8.0 | 0.00 | 0.08 | 0.08 | 77 | 1013.7 |
| 20260831144523 | 64 | 294 | 3.0 | 8.0 | 0.00 | 0.08 | 0.08 | 77 | 1013.6 |
| 20260831143028 | 63 | 281 | 2.0 | 7.0 | 0.00 | 0.08 | 0.08 | 80 | 1013.6 |
| 20260831141531 | 62 | 284 | 3.0 | 8.0 | 0.00 | 0.08 | 0.08 | 81 | 1013.4 |
| 20260831140016 | 60 | 263 | 1.0 | 9.0 | 0.00 | 0.08 | 0.08 | 83 | 1013.4 |